Skip Page Navigation
NASA JPL Caltech
NASA Logo - Jet Propulsion Laboratory + View the NASA Portal
+ Near-Earth Object (NEO) Program
Search JPL
JPL Home Earth Solar System Stars & Galaxies Technology
JPL Solar System Dynamics
BODIES ORBITS EPHEMERIDES TOOLS PHYSICAL DATA DISCOVERY FAQ SITE MAP
JPL Small-Body Database Browser
Search: [ help ]  
30440 Larry (2000 MG)
Classification: Main-belt Asteroid          SPK-ID: 2030440
Ephemeris | Orbit Diagram | Orbital Elements | Physical Parameters | Discovery Circumstances | Close-Approach Data ]

[ show orbit diagram ]
Orbital Elements at Epoch 2456800.5 (2014-May-23.0) TDB
Reference: JPL 4 (heliocentric ecliptic J2000)
 Element Value Uncertainty (1-sigma)   Units 
e .201284377014807 6.8337e-08  
a 3.003173334728796 4.8143e-08 AU
q 2.39868146098043 2.0578e-07 AU
i 1.423181913068395 8.7048e-06 deg
node 354.5245568462892 0.00028923 deg
peri 249.9528987958738 0.00029015 deg
M 262.4278985578977 2.5009e-05 deg
tp 2457315.719371505148
(2015-Oct-20.21937151)
0.00013742 JED
period 1900.942697764006
5.20
4.571e-05
1.251e-07
d
yr
n .1893797221891286 4.5538e-09 deg/d
Q 3.607665208477162 5.7833e-08 AU
  Orbit Determination Parameters
   # obs. used (total)      473  
   data-arc span      10800 days (29.57 yr)  
   first obs. used      1984-06-01  
   last obs. used      2013-12-26  
   planetary ephem.      DE431  
   SB-pert. ephem.      SB431-BIG16  
   condition code      0  
   fit RMS      .63173  
   data source      ORB  
   producer      Otto Matic  
   solution date      2014-Jan-22 11:46:14  

Additional Information
 Earth MOID = 1.38602 AU 
 T_jup = 3.220 
[ show covariance matrix ]

Ephemeris | Orbit Diagram | Orbital Elements | Physical Parameters | Discovery Circumstances | Close-Approach Data ]

Physical Parameter Table
Parameter Symbol Value Units Sigma Reference Notes
absolute magnitude H 14.7 mag n/a MPO257076  

30440 Larry           Discovered 2000 June 22 by J. Broughton at Reedy Creek Observatory.
Philadelphia-born Larry Fine (Louis Feinberg, 1902-1975) was a longtime member of "The Three Stooges". The one in the middle with a scared-porcupine hairstyle, Larry was often the recipient of the collateral damage of slaps, pokes and bumps while trying to keep the peace between the other two.
NOTE: some special characters may not display properly (any characters within {} are an attempt to place the proper accent above a character)
Reference: 20020427/MPCPages.arcLast Updated: 2003-10-02

[ show close-approach data ]
Ephemeris | Orbit Diagram | Orbital Elements | Physical Parameters | Discovery Circumstances | Close-Approach Data ]
ABOUT SSD CREDITS/AWARDS PRIVACY/COPYRIGHT GLOSSARY LINKS
FirstGov 2014-Apr-18 13:08 UT
(server date/time)  
NASA Home Page
Site Manager:   Donald K. Yeomans
Webmaster  Alan B. Chamberlin